Regional Weather Roundup
Issued by NWS Burlington, VT

Home | Current Version | Previous Version | Text Only | Print | Product List | Glossary On
Versions: 1 2 3 4 5 6 7 8 9 10 11 12 13 14 15 16 17 18 19 20 21 22 23 24 25 26 27 28 29 30 31 32 33 34 35 36 37 38 39 40 41 42 43 44 45 46 47 48 49 50
964
ASUS41 KBTV 201630
RWRBTV
VERMONT REGIONAL WEATHER ROUNDUP
NATIONAL WEATHER SERVICE BURLINGTON VT
1200 PM EDT WED SEP 20 2017

NOTE: "FAIR" INDICATES FEW OR NO CLOUDS BELOW 12,000 FEET WITH NO
SIGNIFICANT WEATHER AND/OR OBSTRUCTIONS TO VISIBILITY.

* THESE REPORTS ARE NOT UNDER NWS QUALITY CONTROL AND/OR DO NOT
  REPORT WEATHER SUCH AS PRECIPITATION AND FOG.

VTZ001>019-201700-
_____VERMONT_____


CITY           SKY/WX    TMP DP  RH WIND       PRES   REMARKS
BURLINGTON     CLOUDY    75  64  68 NW8       30.03S
MONTPELIER     MOSUNNY   71  64  78 NW3       30.07F
MORRISVILLE    CLOUDY    72  61  68 NE5       30.05F
ST. JOHNSBURY*   N/A     74  64  71 MISG      30.00F
LYNDONVILLE*   PTSUNNY   74  62  66 NE5       30.05F
MIDDLEBURY*    FAIR      73  64  73 N9        30.01F
RUTLAND*       CLOUDY    73  63  70 NW9       30.00F
SPRINGFIELD    MOSUNNY   74  61  63 N8        30.00F
HIGHGATE*      FAIR      76  65  68 NW6       30.02F
NEWPORT*       FAIR      68  63  82 N8        30.05F
BENNINGTON     CLOUDY    76  62  62 N5        29.98F
SUTTON*          N/A      0 N/A N/A MISG        N/A
ISLAND POND*     N/A     73 N/A N/A N7          N/A
GALLUP MILLS*    N/A     73 N/A N/A MISG        N/A
UNION VILLAGE*   N/A     77 N/A N/A MISG        N/A
MT. MANSFIELD*   N/A     66 N/A N/A E2          N/A

_____LAKE CHAMPLAIN_____


CITY           SKY/WX    TMP DP  RH WIND       PRES   REMARKS
BURTON ISLAND*   N/A     75  66  73 N1          N/A
COLCHESTER RF*   N/A     72  64  78 N14         N/A
DIAMOND ISL*     N/A     70  63  78 N15         N/A

$$

NYZ007-026>031-035-052-083-087-201700-
_____NORTHERN NEW YORK_____


CITY           SKY/WX    TMP DP  RH WIND       PRES   REMARKS
PLATTSBURGH    MOSUNNY   77  62  59 N10       30.02F
SARANAC LAKE   MOSUNNY   74  60  61 NE13G18   30.06F
MASSENA        CLOUDY    69  66  90 NE6       30.07S
OGDENSBURG*    FAIR      78  64  60 NE6       30.04F
POTSDAM*       SUNNY     75  70  83 NE8       30.05F
STARK FALLS*     N/A     75 N/A N/A N2          N/A
WATERTOWN      SUNNY     73  65  75 NE10      30.03F
FT DRUM        SUNNY     74  64  70 E7        30.04S
ALBANY         CLOUDY    76  63  64 N12       29.98F
GLENS FALLS      N/A     76  62  62 N7        30.00S

$$
NHZ002-005-011-201700-
_____NEW HAMPSHIRE_____


CITY           SKY/WX    TMP DP  RH WIND       PRES   REMARKS
LEBANON        CLOUDY    74  64  71 NW5       30.00S
KEENE          CLOUDY    74  65  73 NE10G18   29.95F
MT WASHINGTON  FOG       50  50 100 E24G31      N/A  VSB 1/16
WHITEFIELD     MOSUNNY   76  60  57 NE8       30.03S

$$

_____REGIONAL QUEBEC LOCATIONS_____


CITY           SKY/WX    TMP DP  RH WIND       PRES   REMARKS
MONTREAL       PTSUNNY   75  66  73 NE12      30.05S
QUEBEC CITY    CLOUDY    66  59  77 NE14G21   30.10
SHERBROOKE     SUNNY     73  63  68 N5        30.04F

_____REGIONAL ONTARIO LOCATIONS_____


CITY           SKY/WX    TMP DP  RH WIND       PRES   REMARKS
OTTAWA         PTSUNNY   75  66  73 E7        30.07S

______KEY______
VSB  - VISIBILITY IN MILES
WCI  - WIND CHILL INDEX
HX   - HEAT INDEX
$$
NNNN




USA.gov is the U.S. government's official web portal to all federal, state and local government web resources and services.